Starlink 33814

operational
NORAD ID: 63582 Int'l Des: 2025-076 Owner: SPXS Country: US Constellation: starlink
LEOCIRCULAR

Über Starlink 33814

Beschreibung wird geladen...

Live-Position

3D-Globus wird geladen...

Nächste Überflüge

Höhenverlauf

Altitude vs Time

uPlot chart will show altitude changes over time

Zweizeiliger Elementsatz

1 63582U 25076P 25257.99790167 .00025015 00000-0 91518-3 0 9993
2 63582 42.9985 233.6427 0000886 214.8346 145.2448 15.27590046 24968
Epoch: 14. Sept. 2025 • Age: 24 hours

Aktueller Status

Höhe 482.9 km
Geschwindigkeit 7.63 km/s
Subsatellitenpunkt -4.60°S, 53.11°E
Startdatum 14. Apr. 2025
Alter 0.4 years
Typ internet

Technische Details

Klassifizierung Payload
Masse 575.00 kg
Trockenmasse 530.00 kg
Gesamtmasse 575.00 kg
Länge 0.30 m
Durchmesser 4.10 m
Spannweite 29.00 m
Form Box + pan
Hersteller SPXS
Bus-Typ Starlink V2MO
Phasenstatus In Orbit
Besitzer/Staat SPXS/US

Große Konstellationen

Loading constellations...